Location: Unspecified
(0.0000°N, 0.0000°E)
Time: 16:26:58
(UTC+00:00)

Explorer 11/Cluster Stage 4 - All Passes

Search period start: 23 May 2015 00:00
Search period end: 02 June 2015 00:00
Orbit: 467 x 1272 km, 28.8° (Epoch: 22 May)

Date Brightness Start Highest point End Pass type
(mag) Time Alt. Az. Time Alt. Az. Time Alt. Az.
23 May - 07:44:50 10° NW 07:49:18 42° NNE 07:54:55 10° ESE daylight
23 May - 09:32:56 10° W 09:38:14 44° SSW 09:44:47 10° SE daylight
23 May - 11:24:27 10° SW 11:28:22 15° SSW 11:32:26 10° SSE daylight
23 May - 17:00:10 10° S 17:03:09 12° SSE 17:06:17 10° SE daylight
23 May - 18:47:06 10° SW 18:53:46 32° SSE 18:59:29 10° E visible
23 May - 20:36:18 10° WSW 20:43:13 74° NNW 20:48:40 10° NE visible
23 May - 22:28:37 10° WNW 22:31:55 15° NNW 22:34:43 10° N night (unlit)
24 May - 07:36:22 10° NW 07:40:48 54° NNE 07:46:25 10° ESE daylight
24 May - 09:24:53 10° W 09:29:47 34° SSW 09:35:46 10° SE daylight
24 May - 11:17:19 10° SW 11:20:02 12° SSW 11:22:42 10° S daylight
24 May - 16:50:34 10° SSW 16:54:47 15° SSE 16:59:01 10° SE daylight
24 May - 18:38:03 10° SW 18:45:16 40° SSE 18:51:25 10° E visible
24 May - 20:27:37 10° WSW 20:34:39 60° NNW 20:40:13 10° NE visible
24 May - 22:20:51 10° WNW 22:23:28 13° NNW 22:25:41 10° N night (unlit)
25 May - 05:43:07 10° NNE 05:43:53 11° NNE 05:44:52 10° NE daylight
25 May - 07:27:57 10° NW 07:32:18 70° NNE 07:37:49 10° ESE daylight
25 May - 09:16:57 10° W 09:21:24 27° SSW 09:26:40 10° SSE daylight
25 May - 16:41:14 10° SSW 16:46:22 18° SSE 16:51:27 10° ESE daylight
25 May - 18:29:03 10° SW 18:36:42 49° SSE 18:43:14 10° ENE visible
25 May - 20:19:01 10° WSW 20:26:03 49° NNW 20:31:42 10° NE visible
25 May - 22:13:31 10° NW 22:15:02 11° NNW 22:16:13 10° NNW visible
26 May - 05:33:35 10° N 05:35:29 13° NNE 05:37:39 10° ENE visible
26 May - 07:19:36 10° WNW 07:23:51 88° SSW 07:29:10 10° ESE daylight
26 May - 09:09:10 10° WSW 09:13:03 21° SSW 09:17:28 10° SSE daylight
26 May - 16:32:01 10° SSW 16:37:54 21° SSE 16:43:41 10° ESE daylight
26 May - 18:20:07 10° SW 18:28:07 59° SSE 18:34:57 10° ENE visible
26 May - 20:10:28 10° W 20:17:26 41° NNW 20:23:07 10° NE visible
27 May - 05:24:35 10° N 05:27:05 17° NNE 05:29:53 10° ENE visible
27 May - 07:11:21 10° WNW 07:15:25 65° SSW 07:20:28 10° SE daylight
27 May - 09:01:36 10° WSW 09:04:43 16° SSW 09:08:07 10° SSE daylight
27 May - 16:22:53 10° SSW 16:29:22 25° SSE 16:35:45 10° ESE daylight
27 May - 18:11:15 10° SW 18:19:28 72° SSE 18:26:34 10° ENE visible
27 May - 20:02:00 10° W 20:08:49 35° NNW 20:14:28 10° NNE visible
28 May - 05:15:46 10° NNW 05:18:40 22° NNE 05:21:53 10° E visible
28 May - 07:03:09 10° WNW 07:07:01 46° SSW 07:11:42 10° SE daylight
28 May - 08:54:32 10° SW 08:56:26 12° SSW 08:58:19 10° S daylight
28 May - 14:28:24 10° S 14:30:03 11° SSE 14:32:03 10° SSE daylight
28 May - 16:13:50 10° SSW 16:20:49 30° SSE 16:27:41 10° E daylight
28 May - 18:02:26 10° WSW 18:10:48 85° SSE 18:18:07 10° ENE daylight
28 May - 19:53:37 10° W 20:00:12 29° NNW 20:05:45 10° NNE visible
29 May - 05:07:04 10° NNW 05:10:16 29° NNE 05:13:46 10° E visible
29 May - 06:55:05 10° W 06:58:40 33° SSW 07:02:51 10° SE daylight
29 May - 14:18:41 10° S 14:21:39 12° SSE 14:25:00 10° SE daylight
29 May - 16:04:52 10° SW 16:12:12 35° SSE 16:19:30 10° E daylight
29 May - 17:53:42 10° WSW 18:02:05 82° NNW 18:09:35 10° NE daylight
29 May - 19:45:19 10° W 19:51:36 25° NNW 19:56:59 10° NNE visible
30 May - 04:58:27 10° NW 05:01:52 40° NNE 05:05:31 10° ESE visible
30 May - 06:47:07 10° W 06:50:19 24° SSW 06:53:55 10° SSE daylight
30 May - 14:09:22 10° S 14:13:12 14° SSE 14:17:28 10° SE daylight
30 May - 15:55:57 10° SW 16:03:33 41° SSE 16:11:12 10° E daylight
30 May - 17:45:02 10° WSW 17:53:22 70° NNW 18:00:58 10° NE daylight
30 May - 19:37:07 10° WNW 19:43:01 22° NNW 19:48:07 10° NNE visible
31 May - 04:49:55 10° NW 04:53:28 59° NNE 04:57:12 10° ESE visible
31 May - 06:39:20 10° WSW 06:42:00 17° SSW 06:44:50 10° SSE daylight
31 May - 14:00:14 10° SSW 14:04:43 17° SSE 14:09:43 10° ESE daylight
31 May - 15:47:06 10° SW 15:54:52 49° SSE 16:02:48 10° ENE daylight
31 May - 17:36:25 10° WSW 17:44:38 59° NNW 17:52:17 10° NE daylight
31 May - 19:29:03 10° WNW 19:34:28 19° NNW 19:39:12 10° NNE visible
01 Jun - 02:55:21 10° N 02:56:32 11° NNE 02:57:48 10° NE visible
01 Jun - 04:41:27 10° WNW 04:45:04 87° NNE 04:48:48 10° ESE visible
01 Jun - 06:31:54 10° SW 06:33:41 13° SSW 06:35:28 10° S daylight
01 Jun - 13:51:12 10° SSW 13:56:11 19° SSE 14:01:47 10° ESE daylight
01 Jun - 15:38:18 10° SW 15:46:09 58° SSE 15:54:18 10° ENE daylight
01 Jun - 17:27:54 10° WSW 17:35:56 50° NNW 17:43:32 10° NE daylight
01 Jun - 19:21:07 10° WNW 19:25:56 16° NNW 19:30:11 10° N visible
